| time (UTC) | temp F | wind direction | speed MPH | gust MPH | rain 1hr in | rain 24hr in | rain mn in | humidity % | barometer mb |
| 20260901161006 | 68 | 247 | 1.0 | 2.0 | 0.00 | 0.12 | 0.12 | 87 | 1015.6 |
| 20260901160506 | 68 | 155 | 1.0 | 3.0 | 0.00 | 0.12 | 0.12 | 89 | 1015.5 |
| 20260901155506 | 69 | 162 | 1.0 | 2.0 | 0.00 | 0.12 | 0.12 | 94 | 1015.5 |
| 20260901155006 | 69 | 189 | 0.0 | 5.0 | 0.00 | 0.12 | 0.12 | 93 | 1015.5 |
| 20260901154506 | 69 | 186 | 1.0 | 1.0 | 0.00 | 0.12 | 0.12 | 94 | 1015.8 |
| 20260901154006 | 69 | 218 | 0.0 | 1.0 | 0.00 | 0.12 | 0.12 | 96 | 1015.8 |
| 20260901153506 | 68 | 352 | 1.0 | 6.0 | 0.00 | 0.12 | 0.12 | 95 | 1015.6 |
| 20260901152506 | 68 | 43 | 0.0 | 2.0 | 0.00 | 0.12 | 0.12 | 97 | 1015.7 |
| 20260901152006 | 68 | 144 | 0.0 | 2.0 | 0.00 | 0.12 | 0.12 | 97 | 1016.0 |
| 20260901151506 | 68 | 234 | 0.0 | 2.0 | 0.00 | 0.12 | 0.12 | 96 | 1016.0 |
| 20260901151006 | 68 | 153 | 1.0 | 7.0 | 0.00 | 0.12 | 0.12 | 96 | 1016.0 |
| 20260901150506 | 68 | 138 | 0.0 | 2.0 | 0.00 | 0.12 | 0.12 | 97 | 1016.0 |
| 20260901150006 | 68 | 120 | 1.0 | 3.0 | 0.00 | 0.12 | 0.12 | 97 | 1016.0 |
| 20260901145006 | 68 | 150 | 0.0 | 1.0 | 0.00 | 0.12 | 0.12 | 100 | 1016.0 |
| 20260901144506 | 67 | 89 | 2.0 | 3.0 | 0.02 | 0.12 | 0.12 | 100 | 1016.0 |
| 20260901144006 | 67 | 81 | 1.0 | 3.0 | 0.02 | 0.12 | 0.12 | 100 | 1016.1 |
| 20260901143006 | 66 | 75 | 1.0 | 3.0 | 0.02 | 0.12 | 0.12 | 100 | 1016.1 |
| 20260901142506 | 66 | 80 | 1.0 | 3.0 | 0.04 | 0.12 | 0.12 | 100 | 1016.3 |
| 20260901142005 | 65 | 166 | 0.0 | 2.0 | 0.04 | 0.12 | 0.12 | 100 | 1016.4 |
| 20260901141506 | 66 | 77 | 1.0 | 2.0 | 0.04 | 0.12 | 0.12 | 100 | 1016.4 |
| 20260901141105 | 66 | 122 | 0.0 | 2.0 | 0.04 | 0.12 | 0.12 | 100 | 1016.5 |
| 20260901140605 | 66 | 68 | 1.0 | 3.0 | 0.04 | 0.12 | 0.12 | 100 | 1016.5 |
| 20260901135606 | 66 | 194 | 1.0 | 2.0 | 0.06 | 0.12 | 0.12 | 100 | 1016.2 |
| 20260901135106 | 65 | 317 | 1.0 | 3.0 | 0.06 | 0.12 | 0.12 | 100 | 1016.5 |
| 20260901134605 | 65 | 130 | 0.0 | 1.0 | 0.04 | 0.10 | 0.10 | 100 | 1016.6 |
| 20260901133606 | 65 | 75 | 0.0 | 1.0 | 0.04 | 0.10 | 0.10 | 100 | 1016.3 |
| 20260901133106 | 65 | 133 | 0.0 | 0.0 | 0.06 | 0.10 | 0.10 | 100 | 1016.5 |
| 20260901132606 | 65 | 96 | 0.0 | 0.0 | 0.04 | 0.08 | 0.08 | 100 | 1016.5 |
| 20260901131606 | 65 | 71 | 2.0 | 2.0 | 0.06 | 0.08 | 0.08 | 100 | 1016.6 |
| 20260901131105 | 65 | 63 | 0.0 | 1.0 | 0.08 | 0.08 | 0.08 | 100 | 1016.6 |
| 20260901130606 | 65 | 38 | 1.0 | 1.0 | 0.08 | 0.08 | 0.08 | 100 | 1016.4 |
| 20260901130106 | 65 | 92 | 0.0 | 1.0 | 0.08 | 0.08 | 0.08 | 100 | 1016.4 |
| 20260901125606 | 65 | 78 | 0.0 | 1.0 | 0.06 | 0.06 | 0.06 | 100 | 1016.4 |
| 20260901125105 | 65 | 65 | 0.0 | 0.0 | 0.06 | 0.06 | 0.06 | 100 | 1016.3 |
| 20260901124605 | 65 | 137 | 0.0 | 1.0 | 0.06 | 0.06 | 0.06 | 100 | 1016.4 |
| 20260901124106 | 65 | 53 | 0.0 | 1.0 | 0.06 | 0.06 | 0.06 | 100 | 1016.3 |
| 20260901123605 | 64 | 108 | 1.0 | 1.0 | 0.06 | 0.06 | 0.06 | 100 | 1016.4 |
| 20260901123106 | 64 | 293 | 0.0 | 0.0 | 0.04 | 0.04 | 0.04 | 100 | 1016.4 |
| 20260901122605 | 64 | 299 | 0.0 | 1.0 | 0.04 | 0.04 | 0.04 | 100 | 1016.4 |
| 20260901121106 | 65 | 18 | 0.0 | 0.0 | 0.00 | 0.00 | 0.00 | 100 | 1016.2 |
| 20260901120106 | 64 | 307 | 0.0 | 0.0 | 0.00 | 0.00 | 0.00 | 100 | 1016.4 |
| 20260901115605 | 64 | 44 | 0.0 | 1.0 | 0.00 | 0.00 | 0.00 | 100 | 1016.2 |
| 20260901115105 | 64 | 48 | 0.0 | 1.0 | 0.00 | 0.00 | 0.00 | 100 | 1016.3 |
| 20260901114606 | 64 | 321 | 0.0 | 2.0 | 0.00 | 0.00 | 0.00 | 100 | 1016.3 |
| 20260901114106 | 64 | 27 | 0.0 | 1.0 | 0.00 | 0.00 | 0.00 | 100 | 1016.4 |
| 20260901113606 | 64 | 254 | 0.0 | 1.0 | 0.00 | 0.00 | 0.00 | 100 | 1016.5 |
| 20260901113106 | 64 | 271 | 0.0 | 1.0 | 0.00 | 0.00 | 0.00 | 100 | 1016.3 |
| 20260901112605 | 64 | 40 | 0.0 | 0.0 | 0.00 | 0.00 | 0.00 | 100 | 1016.3 |
| 20260901112106 | 64 | 20 | 0.0 | 0.0 | 0.00 | 0.00 | 0.00 | 100 | 1016.1 |
| 20260901111606 | 64 | 342 | 0.0 | 1.0 | 0.00 | 0.00 | 0.00 | 100 | 1016.1 |
| 20260901111106 | 64 | 317 | 0.0 | 0.0 | 0.00 | 0.00 | 0.00 | 100 | 1016.0 |
| 20260901110605 | 64 | 245 | 0.0 | 0.0 | 0.00 | 0.00 | 0.00 | 99 | 1016.0 |
| 20260901110105 | 64 | 245 | 0.0 | 0.0 | 0.00 | 0.00 | 0.00 | 99 | 1016.0 |
| 20260901105606 | 64 | 221 | 0.0 | 1.0 | 0.00 | 0.00 | 0.00 | 98 | 1016.0 |
| 20260901105105 | 64 | 189 | 0.0 | 1.0 | 0.00 | 0.00 | 0.00 | 98 | 1016.0 |
| 20260901104605 | 64 | 251 | 0.0 | 1.0 | 0.00 | 0.00 | 0.00 | 97 | 1016.0 |
| 20260901104106 | 64 | 32 | 0.0 | 1.0 | 0.00 | 0.00 | 0.00 | 98 | 1016.0 |
| 20260901103606 | 64 | 38 | 1.0 | 2.0 | 0.00 | 0.00 | 0.00 | 97 | 1016.0 |
| 20260901102605 | 64 | 53 | 1.0 | 1.0 | 0.00 | 0.00 | 0.00 | 96 | 1015.9 |
| 20260901102106 | 64 | 277 | 0.0 | 0.0 | 0.00 | 0.00 | 0.00 | 96 | 1015.9 |
| 20260901101605 | 64 | 277 | 0.0 | 0.0 | 0.00 | 0.00 | 0.00 | 96 | 1015.9 |
| 20260901101105 | 64 | 280 | 0.0 | 0.0 | 0.00 | 0.00 | 0.00 | 96 | 1015.9 |
| 20260901095606 | 64 | 26 | 0.0 | 0.0 | 0.00 | 0.00 | 0.00 | 94 | 1015.6 |
| 20260901094105 | 64 | 168 | 0.0 | 0.0 | 0.00 | 0.00 | 0.00 | 93 | 1015.7 |
| 20260901093605 | 64 | 168 | 0.0 | 1.0 | 0.00 | 0.00 | 0.00 | 93 | 1015.7 |
| 20260901093105 | 64 | 76 | 0.0 | 0.0 | 0.00 | 0.00 | 0.00 | 92 | 1015.8 |
| 20260901092605 | 64 | 89 | 0.0 | 0.0 | 0.00 | 0.00 | 0.00 | 92 | 1015.9 |
| 20260901092105 | 64 | 114 | 0.0 | 0.0 | 0.00 | 0.00 | 0.00 | 92 | 1015.9 |
| 20260901091605 | 64 | 51 | 0.0 | 0.0 | 0.00 | 0.00 | 0.00 | 92 | 1015.7 |
| 20260901091105 | 64 | 94 | 0.0 | 1.0 | 0.00 | 0.00 | 0.00 | 92 | 1015.7 |
| 20260901090105 | 64 | 207 | 0.0 | 0.0 | 0.00 | 0.00 | 0.00 | 91 | 1015.9 |
| 20260901085605 | 64 | 203 | 0.0 | 0.0 | 0.00 | 0.00 | 0.00 | 91 | 1015.9 |
| 20260901085105 | 64 | 128 | 0.0 | 0.0 | 0.00 | 0.00 | 0.00 | 91 | 1015.7 |
| 20260901084605 | 64 | 175 | 0.0 | 0.0 | 0.00 | 0.00 | 0.00 | 91 | 1015.9 |
| 20260901083606 | 64 | 156 | 0.0 | 1.0 | 0.00 | 0.00 | 0.00 | 91 | 1016.0 |
| 20260901083105 | 64 | 153 | 0.0 | 1.0 | 0.00 | 0.00 | 0.00 | 92 | 1016.0 |
| 20260901082605 | 64 | 84 | 0.0 | 1.0 | 0.00 | 0.00 | 0.00 | 92 | 1016.0 |
| 20260901082105 | 64 | 187 | 0.0 | 1.0 | 0.00 | 0.00 | 0.00 | 92 | 1016.0 |
| 20260901081605 | 64 | 169 | 0.0 | 1.0 | 0.00 | 0.00 | 0.00 | 92 | 1016.1 |
| 20260901081105 | 64 | 162 | 0.0 | 1.0 | 0.00 | 0.00 | 0.00 | 92 | 1016.1 |
| 20260901080605 | 64 | 158 | 0.0 | 1.0 | 0.00 | 0.00 | 0.00 | 92 | 1016.3 |
| 20260901080105 | 65 | 146 | 0.0 | 0.0 | 0.00 | 0.00 | 0.00 | 92 | 1016.5 |
| 20260901075605 | 65 | 146 | 0.0 | 0.0 | 0.00 | 0.00 | 0.00 | 91 | 1016.4 |
| 20260901075105 | 65 | 145 | 0.0 | 0.0 | 0.00 | 0.00 | 0.00 | 91 | 1016.4 |
| 20260901073605 | 65 | 134 | 0.0 | 0.0 | 0.00 | 0.00 | 0.00 | 88 | 1016.6 |
| 20260901073105 | 65 | 152 | 0.0 | 0.0 | 0.00 | 0.00 | 0.00 | 88 | 1016.6 |
| 20260901072604 | 65 | 116 | 0.0 | 0.0 | 0.00 | 0.00 | 0.00 | 87 | 1016.6 |
| 20260901072105 | 65 | 107 | 0.0 | 0.0 | 0.00 | 0.00 | 0.00 | 87 | 1016.6 |
| 20260901071605 | 65 | 70 | 0.0 | 1.0 | 0.00 | 0.00 | 0.00 | 88 | 1016.5 |
| 20260901070605 | 65 | 108 | 0.0 | 2.0 | 0.00 | 0.00 | 0.00 | 88 | 1016.5 |
| 20260901070105 | 65 | 125 | 0.0 | 1.0 | 0.00 | 0.00 | 0.00 | 88 | 1016.4 |
| 20260901065605 | 65 | 167 | 0.0 | 1.0 | 0.00 | 0.00 | 0.00 | 88 | 1016.4 |
| 20260901064605 | 65 | 172 | 0.0 | 2.0 | 0.00 | 0.00 | 0.00 | 87 | 1016.4 |
| 20260901064105 | 65 | 158 | 0.0 | 0.0 | 0.00 | 0.00 | 0.00 | 87 | 1016.5 |
| 20260901063605 | 65 | 132 | 0.0 | 0.0 | 0.00 | 0.00 | 0.00 | 87 | 1016.5 |
| 20260901063105 | 65 | 146 | 0.0 | 1.0 | 0.00 | 0.00 | 0.00 | 87 | 1016.5 |
| 20260901062604 | 65 | 210 | 0.0 | 1.0 | 0.00 | 0.00 | 0.00 | 87 | 1016.8 |
| 20260901062105 | 65 | 201 | 0.0 | 1.0 | 0.00 | 0.00 | 0.00 | 87 | 1016.8 |
| 20260901061604 | 65 | 205 | 0.0 | 0.0 | 0.00 | 0.00 | 0.00 | 87 | 1016.8 |
| 20260901061104 | 65 | 160 | 0.0 | 1.0 | 0.00 | 0.00 | 0.00 | 86 | 1016.7 |
| 20260901060605 | 65 | 171 | 0.0 | 1.0 | 0.00 | 0.00 | 0.00 | 86 | 1016.5 |
| 20260901060104 | 65 | 67 | 0.0 | 1.0 | 0.00 | 0.00 | 0.00 | 86 | 1016.7 |
| 20260901055605 | 65 | 215 | 0.0 | 1.0 | 0.00 | 0.00 | 0.00 | 86 | 1016.5 |
| 20260901055105 | 65 | 169 | 1.0 | 2.0 | 0.00 | 0.00 | 0.00 | 86 | 1016.5 |
| 20260901054605 | 65 | 183 | 1.0 | 2.0 | 0.00 | 0.00 | 0.00 | 86 | 1016.5 |
| 20260901054105 | 65 | 143 | 1.0 | 1.0 | 0.00 | 0.00 | 0.00 | 86 | 1016.5 |
| 20260901053605 | 65 | 137 | 0.0 | 1.0 | 0.00 | 0.00 | 0.00 | 85 | 1016.5 |
| 20260901053104 | 65 | 184 | 0.0 | 1.0 | 0.00 | 0.00 | 0.00 | 86 | 1016.7 |
| 20260901052105 | 65 | 143 | 0.0 | 1.0 | 0.00 | 0.00 | 0.00 | 85 | 1016.6 |
| 20260901051105 | 66 | 113 | 0.0 | 1.0 | 0.00 | 0.00 | 0.00 | 85 | 1016.9 |
| 20260901050605 | 65 | 100 | 1.0 | 1.0 | 0.00 | 0.00 | 0.00 | 84 | 1016.9 |
| 20260901050104 | 66 | 199 | 0.0 | 1.0 | 0.00 | 0.00 | 0.00 | 84 | 1017.1 |
| 20260901045605 | 66 | 174 | 0.0 | 1.0 | 0.00 | 0.00 | 0.00 | 83 | 1016.9 |
| 20260901045104 | 66 | 68 | 1.0 | 2.0 | 0.00 | 0.00 | 0.00 | 83 | 1016.8 |
| 20260901044104 | 66 | 239 | 1.0 | 2.0 | 0.00 | 0.00 | 0.00 | 83 | 1016.6 |
| 20260901043604 | 66 | 206 | 1.0 | 2.0 | 0.00 | 0.00 | 0.00 | 83 | 1016.8 |
| 20260901043105 | 66 | 184 | 0.0 | 2.0 | 0.00 | 0.00 | 0.00 | 82 | 1016.9 |
| 20260901042604 | 66 | 197 | 0.0 | 1.0 | 0.00 | 0.00 | 0.00 | 82 | 1017.0 |
| 20260901042104 | 66 | 142 | 1.0 | 2.0 | 0.00 | 0.00 | 0.00 | 81 | 1016.8 |
| 20260901041604 | 66 | 168 | 0.0 | 2.0 | 0.00 | 0.00 | 0.00 | 82 | 1016.8 |
| 20260901041106 | 66 | 208 | 1.0 | 1.0 | 0.00 | 0.00 | 0.00 | 82 | 1016.9 |
| 20260901040605 | 66 | 70 | 0.0 | 2.0 | 0.00 | 0.00 | 0.00 | 81 | 1017.0 |
| 20260901040104 | 66 | 237 | 0.0 | 2.0 | 0.00 | 0.00 | 0.00 | 81 | 1017.0 |
| 20260901035604 | 66 | 224 | 1.0 | 2.0 | 0.00 | 0.00 | 0.00 | 84 | 1017.0 |
| 20260901034104 | 66 | 181 | 1.0 | 2.0 | 0.00 | 0.02 | 0.00 | 81 | 1017.1 |
| 20260901033604 | 66 | 228 | 1.0 | 2.0 | 0.00 | 0.02 | 0.00 | 80 | 1017.0 |
| 20260901033104 | 66 | 203 | 1.0 | 2.0 | 0.00 | 0.02 | 0.00 | 81 | 1017.1 |
| 20260901032104 | 66 | 175 | 0.0 | 3.0 | 0.00 | 0.02 | 0.00 | 80 | 1017.0 |
| 20260901031604 | 66 | 182 | 1.0 | 2.0 | 0.00 | 0.02 | 0.00 | 80 | 1017.0 |
| 20260901031105 | 66 | 120 | 0.0 | 3.0 | 0.00 | 0.02 | 0.00 | 79 | 1017.1 |
| 20260901030604 | 66 | 139 | 0.0 | 2.0 | 0.00 | 0.02 | 0.00 | 79 | 1017.1 |
| 20260901030104 | 66 | 168 | 1.0 | 2.0 | 0.00 | 0.04 | 0.00 | 79 | 1017.0 |
| 20260901025604 | 66 | 85 | 1.0 | 2.0 | 0.00 | 0.14 | 0.00 | 79 | 1016.9 |
| 20260901024604 | 66 | 168 | 1.0 | 2.0 | 0.00 | 0.31 | 0.00 | 77 | 1016.9 |
| 20260901024104 | 66 | 145 | 1.0 | 3.0 | 0.00 | 0.35 | 0.00 | 78 | 1016.9 |
| 20260901023604 | 66 | 82 | 1.0 | 3.0 | 0.00 | 0.37 | 0.00 | 79 | 1016.9 |
| 20260901023104 | 66 | 245 | 1.0 | 5.0 | 0.00 | 0.37 | 0.00 | 79 | 1017.1 |
| 20260901022104 | 67 | 255 | 1.0 | 5.0 | 0.00 | 0.37 | 0.00 | 81 | 1016.9 |
| 20260901021604 | 67 | 204 | 1.0 | 2.0 | 0.00 | 0.37 | 0.00 | 84 | 1017.1 |
| 20260901021104 | 67 | 171 | 0.0 | 1.0 | 0.00 | 0.37 | 0.00 | 85 | 1016.9 |
| 20260901020604 | 67 | 169 | 0.0 | 1.0 | 0.00 | 0.37 | 0.00 | 85 | 1017.1 |
| 20260901020104 | 67 | 199 | 1.0 | 2.0 | 0.00 | 0.37 | 0.00 | 85 | 1017.1 |
| 20260901015604 | 67 | 95 | 1.0 | 2.0 | 0.00 | 0.37 | 0.00 | 85 | 1017.1 |
| 20260901015104 | 67 | 191 | 0.0 | 2.0 | 0.00 | 0.37 | 0.00 | 86 | 1017.1 |
| 20260901014604 | 67 | 159 | 0.0 | 1.0 | 0.00 | 0.37 | 0.00 | 86 | 1017.1 |
| 20260901014104 | 67 | 114 | 0.0 | 5.0 | 0.00 | 0.37 | 0.00 | 85 | 1017.1 |
| 20260901013604 | 67 | 109 | 1.0 | 1.0 | 0.00 | 0.37 | 0.00 | 85 | 1017.1 |
| 20260901013104 | 67 | 146 | 0.0 | 2.0 | 0.00 | 0.37 | 0.00 | 86 | 1017.1 |
| 20260901012603 | 67 | 181 | 0.0 | 1.0 | 0.00 | 0.37 | 0.00 | 87 | 1017.2 |
| 20260901012104 | 67 | 215 | 1.0 | 2.0 | 0.00 | 0.37 | 0.00 | 86 | 1017.2 |
| 20260901011604 | 67 | 220 | 1.0 | 3.0 | 0.00 | 0.37 | 0.00 | 85 | 1017.2 |
| 20260901011104 | 67 | 123 | 0.0 | 2.0 | 0.00 | 0.37 | 0.00 | 85 | 1017.2 |
| 20260901010604 | 67 | 152 | 1.0 | 2.0 | 0.00 | 0.37 | 0.00 | 86 | 1017.2 |
| 20260901010103 | 68 | 103 | 1.0 | 2.0 | 0.00 | 0.37 | 0.00 | 85 | 1017.2 |
| 20260901005604 | 68 | 240 | 1.0 | 2.0 | 0.00 | 0.37 | 0.00 | 85 | 1017.2 |
| 20260901005104 | 68 | 119 | 0.0 | 2.0 | 0.00 | 0.37 | 0.00 | 84 | 1017.0 |
| 20260901004604 | 68 | 121 | 1.0 | 2.0 | 0.00 | 0.37 | 0.00 | 84 | 1017.0 |
| 20260901004104 | 68 | 40 | 0.0 | 1.0 | 0.00 | 0.37 | 0.00 | 83 | 1016.9 |
| 20260901003604 | 68 | 124 | 1.0 | 3.0 | 0.00 | 0.37 | 0.00 | 81 | 1016.9 |
| 20260901003104 | 68 | 143 | 0.0 | 1.0 | 0.00 | 0.37 | 0.00 | 81 | 1016.9 |
| 20260901002603 | 68 | 145 | 1.0 | 1.0 | 0.00 | 0.37 | 0.00 | 80 | 1016.8 |
| 20260901002104 | 68 | 134 | 0.0 | 1.0 | 0.00 | 0.37 | 0.00 | 80 | 1016.9 |
| 20260901001603 | 69 | 105 | 0.0 | 1.0 | 0.00 | 0.37 | 0.00 | 79 | 1016.9 |
| 20260901001104 | 69 | 121 | 1.0 | 2.0 | 0.00 | 0.37 | 0.00 | 78 | 1016.9 |
| 20260901000103 | 69 | 173 | 0.0 | 1.0 | 0.00 | 0.37 | 0.00 | 76 | 1016.9 |
| 20260831235604 | 69 | 10 | 0.0 | 1.0 | 0.00 | 0.37 | 0.00 | 76 | 1016.9 |
| 20260831234603 | 69 | 124 | 0.0 | 1.0 | 0.00 | 0.37 | 0.00 | 74 | 1017.0 |
| 20260831234104 | 70 | 120 | 0.0 | 1.0 | 0.00 | 0.37 | 0.00 | 74 | 1016.9 |
| 20260831233604 | 70 | 163 | 0.0 | 1.0 | 0.00 | 0.37 | 0.00 | 73 | 1016.9 |
| 20260831233103 | 70 | 222 | 0.0 | 2.0 | 0.00 | 0.37 | 0.00 | 71 | 1017.0 |
| 20260831232604 | 70 | 184 | 0.0 | 1.0 | 0.00 | 0.37 | 0.00 | 72 | 1017.0 |
| 20260831232103 | 71 | 247 | 0.0 | 1.0 | 0.00 | 0.37 | 0.00 | 70 | 1017.1 |
| 20260831231603 | 71 | 117 | 1.0 | 1.0 | 0.00 | 0.37 | 0.00 | 71 | 1017.1 |
| 20260831231104 | 71 | 172 | 0.0 | 1.0 | 0.00 | 0.37 | 0.00 | 69 | 1017.1 |
| 20260831230603 | 71 | 173 | 0.0 | 1.0 | 0.00 | 0.37 | 0.00 | 69 | 1017.0 |
| 20260831230104 | 71 | 169 | 1.0 | 2.0 | 0.00 | 0.37 | 0.00 | 69 | 1017.2 |
| 20260831225604 | 72 | 80 | 1.0 | 3.0 | 0.00 | 0.37 | 0.00 | 68 | 1017.2 |
| 20260831224603 | 72 | 135 | 0.0 | 1.0 | 0.00 | 0.37 | 0.00 | 67 | 1017.1 |
| 20260831224104 | 72 | 107 | 0.0 | 0.0 | 0.00 | 0.37 | 0.00 | 64 | 1017.1 |
| 20260831223603 | 72 | 123 | 0.0 | 1.0 | 0.00 | 0.37 | 0.00 | 64 | 1017.1 |
| 20260831223105 | 72 | 119 | 0.0 | 0.0 | 0.00 | 0.37 | 0.00 | 62 | 1017.0 |
| 20260831222604 | 73 | 157 | 0.0 | 0.0 | 0.00 | 0.37 | 0.00 | 62 | 1017.0 |
| 20260831221604 | 73 | 92 | 0.0 | 1.0 | 0.00 | 0.37 | 0.00 | 61 | 1017.2 |
| 20260831220603 | 73 | 206 | 0.0 | 1.0 | 0.00 | 0.37 | 0.00 | 60 | 1017.2 |
| 20260831215603 | 73 | 170 | 0.0 | 1.0 | 0.00 | 0.37 | 0.00 | 58 | 1017.2 |
| 20260831214603 | 74 | 198 | 0.0 | 0.0 | 0.00 | 0.37 | 0.00 | 59 | 1017.2 |
| 20260831214104 | 74 | 172 | 0.0 | 0.0 | 0.00 | 0.37 | 0.00 | 58 | 1017.2 |
| 20260831213603 | 74 | 156 | 0.0 | 2.0 | 0.00 | 0.37 | 0.00 | 55 | 1017.3 |
| 20260831212603 | 74 | 238 | 0.0 | 0.0 | 0.00 | 0.37 | 0.00 | 55 | 1017.2 |
| 20260831212103 | 75 | 272 | 0.0 | 0.0 | 0.00 | 0.37 | 0.00 | 53 | 1017.2 |
| 20260831211603 | 75 | 262 | 0.0 | 2.0 | 0.00 | 0.37 | 0.00 | 58 | 1017.0 |
| 20260831211103 | 75 | 59 | 0.0 | 1.0 | 0.00 | 0.37 | 0.00 | 54 | 1017.2 |
| 20260831210604 | 75 | 126 | 0.0 | 1.0 | 0.00 | 0.37 | 0.00 | 52 | 1017.3 |
| 20260831210104 | 75 | 250 | 0.0 | 2.0 | 0.00 | 0.37 | 0.00 | 52 | 1017.2 |
| 20260831205603 | 74 | 245 | 0.0 | 0.0 | 0.00 | 0.37 | 0.00 | 52 | 1017.2 |
| 20260831205103 | 75 | 330 | 0.0 | 1.0 | 0.00 | 0.37 | 0.00 | 57 | 1017.3 |
| 20260831204603 | 75 | 216 | 0.0 | 2.0 | 0.00 | 0.37 | 0.00 | 57 | 1017.5 |
| 20260831204103 | 76 | 159 | 0.0 | 1.0 | 0.00 | 0.37 | 0.00 | 54 | 1017.5 |
| 20260831203603 | 77 | 283 | 0.0 | 2.0 | 0.00 | 0.37 | 0.00 | 49 | 1017.4 |
| 20260831202603 | 77 | 239 | 1.0 | 2.0 | 0.00 | 0.37 | 0.00 | 47 | 1017.4 |
| 20260831202103 | 77 | 285 | 0.0 | 2.0 | 0.00 | 0.37 | 0.00 | 47 | 1017.4 |
| 20260831201603 | 77 | 5 | 1.0 | 3.0 | 0.00 | 0.37 | 0.00 | 46 | 1017.2 |
| 20260831201103 | 76 | 28 | 1.0 | 2.0 | 0.00 | 0.37 | 0.00 | 48 | 1017.4 |
| 20260831195603 | 74 | 244 | 0.0 | 2.0 | 0.00 | 0.37 | 0.00 | 60 | 1017.5 |
| 20260831195102 | 73 | 130 | 1.0 | 2.0 | 0.00 | 0.37 | 0.00 | 54 | 1017.5 |
| 20260831194103 | 74 | 229 | 1.0 | 2.0 | 0.00 | 0.37 | 0.00 | 59 | 1017.5 |
| 20260831193103 | 74 | 185 | 0.0 | 1.0 | 0.00 | 0.37 | 0.00 | 55 | 1017.7 |
| 20260831192603 | 75 | 337 | 1.0 | 3.0 | 0.00 | 0.37 | 0.00 | 52 | 1018.0 |
| 20260831192102 | 74 | 109 | 1.0 | 2.0 | 0.00 | 0.37 | 0.00 | 52 | 1018.0 |
| 20260831191103 | 74 | 218 | 0.0 | 3.0 | 0.00 | 0.37 | 0.00 | 59 | 1017.9 |
| 20260831190603 | 74 | 266 | 1.0 | 2.0 | 0.00 | 0.37 | 0.00 | 59 | 1018.0 |
| 20260831185603 | 74 | 208 | 1.0 | 1.0 | 0.00 | 0.37 | 0.00 | 54 | 1018.0 |
| 20260831185102 | 74 | 135 | 1.0 | 2.0 | 0.00 | 0.37 | 0.00 | 54 | 1018.0 |
| 20260831184603 | 75 | 342 | 0.0 | 2.0 | 0.00 | 0.37 | 0.00 | 56 | 1018.0 |
| 20260831184103 | 75 | 209 | 1.0 | 2.0 | 0.00 | 0.37 | 0.00 | 54 | 1018.1 |
| 20260831183603 | 75 | 107 | 1.0 | 2.0 | 0.00 | 0.37 | 0.00 | 54 | 1018.1 |
| 20260831182602 | 74 | 239 | 1.0 | 3.0 | 0.00 | 0.37 | 0.00 | 54 | 1018.4 |
| 20260831182103 | 75 | 49 | 1.0 | 2.0 | 0.00 | 0.37 | 0.00 | 56 | 1018.5 |
| 20260831181103 | 74 | 14 | 1.0 | 2.0 | 0.00 | 0.37 | 0.00 | 52 | 1018.5 |
| 20260831180603 | 75 | 101 | 1.0 | 3.0 | 0.00 | 0.37 | 0.00 | 54 | 1018.5 |
| 20260831175603 | 74 | 208 | 1.0 | 3.0 | 0.00 | 0.37 | 0.00 | 56 | 1018.5 |
| 20260831175103 | 74 | 125 | 1.0 | 5.0 | 0.00 | 0.37 | 0.00 | 54 | 1018.5 |
| 20260831174603 | 74 | 229 | 1.0 | 3.0 | 0.00 | 0.37 | 0.00 | 57 | 1018.5 |
| 20260831174103 | 74 | 55 | 1.0 | 3.0 | 0.00 | 0.37 | 0.00 | 51 | 1018.5 |
| 20260831173603 | 74 | 219 | 1.0 | 2.0 | 0.00 | 0.37 | 0.00 | 53 | 1018.6 |
| 20260831173102 | 74 | 345 | 1.0 | 2.0 | 0.00 | 0.37 | 0.00 | 53 | 1018.6 |
| 20260831172603 | 73 | 248 | 1.0 | 2.0 | 0.00 | 0.37 | 0.00 | 60 | 1018.7 |
| 20260831172102 | 74 | 213 | 1.0 | 2.0 | 0.00 | 0.37 | 0.00 | 57 | 1018.6 |
| 20260831171102 | 74 | 295 | 1.0 | 2.0 | 0.00 | 0.37 | 0.00 | 54 | 1018.6 |
| 20260831170603 | 74 | 153 | 1.0 | 3.0 | 0.00 | 0.37 | 0.00 | 56 | 1018.6 |
| 20260831165602 | 74 | 264 | 1.0 | 2.0 | 0.00 | 0.37 | 0.00 | 64 | 1019.0 |
| 20260831165102 | 74 | 137 | 1.0 | 3.0 | 0.00 | 0.37 | 0.00 | 57 | 1019.0 |
| 20260831164603 | 75 | 65 | 0.0 | 1.0 | 0.00 | 0.37 | 0.00 | 60 | 1019.0 |
| 20260831163602 | 73 | 209 | 1.0 | 2.0 | 0.00 | 0.37 | 0.00 | 64 | 1019.0 |
| 20260831163102 | 73 | 95 | 0.0 | 1.0 | 0.00 | 0.37 | 0.00 | 61 | 1019.1 |
| 20260831162602 | 73 | 197 | 1.0 | 2.0 | 0.00 | 0.37 | 0.00 | 59 | 1019.0 |
| 20260831162102 | 73 | 207 | 1.0 | 2.0 | 0.00 | 0.37 | 0.00 | 57 | 1019.0 |
| 20260831161603 | 74 | 201 | 1.0 | 2.0 | 0.00 | 0.37 | 0.00 | 57 | 1019.2 |